Showing default

DROID.002, 63223

Orbit data source: Space-Track

DROID.002, 63223 is a payload satellite owned by Turion Space (US) in SSO that was launched on Sat, 15 Mar 2025 UTC via an FALCON 9 launch vehicle from the Air Force Western Test Range (AFWTR). Payload-class satellites include a variety of spacecraft equipped with specific instruments for various scientific and technological missions. These include communications satellites like Starlink; space stations such as the ISS; scientific satellites like the Hubble; Earth observation satellites from companies like Planet Labs, Umbra, and HawkEye 360; GPS; miniature CubeSats for education and research; and military/defense satellites.

Loading next visibility...
Identifier
63223, 2025-052P
Orbit
SSO
Country
Flag of USUS
Related business
Manufacturer
Turion Space
Mission
Operational Commercial Technology
Bus & Motor
DROID, Unknown motor
Mass
90 kg wet, 90 kg dry
Launch date (UTC)
2025-03-15 (6 months ago)
Launch vehicle
FALCON 9
Launch site
Air Force Western Test Range (AFWTR)
Object type
Payload
Rocket body
Debris
Shape & HBR
Box + 2 Pan, 1.0 m
Radar Cross Section
0.892 m², Large (>1 m²)

Expand to show TLE details & history
Last TLE update: 22 hours ago

TLE from 22 hours ago
0 DROID.002
1 63223U 25052P   25260.13624489  .00006658  00000-0  31474-3 0  9999
2 63223  97.4194 152.3230 0005397  35.2835 324.8756 15.19711673 28352
Epoch: 2025-09-17T03:16Z
TLE epoch observation values (Epoch: 2025-09-17T03:16:11.558Z)
Latitude
-0.00005°
Longitude
106.95832°
Altitude
506.762 km
Speed
7.612 km/s
True Right ascension
10h 09m 17s
True Declination
0° 00' 00"
Sunlit
Object was in daylight at epoch
Visualization orbit readout
Latitude
Unknown
Longitude
Unknown
Altitude
Unknown
Speed
Unknown
Apparent Right ascension
Unknown
Apparent Declination
Unknown
Sunlit
N/A
Visualization observer readout
Local Sidereal Time
17:55:19
Azimuth
Unknown
Elevation
Unknown
Doppler factor
Unknown
Orbital elements
Apogee altitude
507.392 km
Perigee altitude
499.964 km
Semi-major axis
6,881.815 km
Eccentricity
0.00054
Inclination
97.4194°
RAAN
152.323°
Arg. of periapsis
35.2835°
True anomaly
324.84°
Mean anomaly
324.8756°
Eccentric anomaly
324.8578°
Mean motion
3.80179 °/min
Orbital period
94.69 mins
BSTAR
0.00031474
Loading maneuver chart data...
Computing Atmospheric mass density...
Loading historical data...
Loading historical data...
Loading historical data...
Loading historical data...
Loading historical data...
Loading historical data...
Loading historical data...

Documentation

Showing up to 5 results
|